Location: The Saddle
(36.8333°N, 80.3417°W)
Time: 21:55:12
(UTC-04:00)

Vanguard 2 Rocket - Visible Passes

Search period start: 17 August 2022 00:00
Search period end: 27 August 2022 00:00
Orbit: 553 x 3324 km, 32.9° (Epoch: 16 August)

Date Brightness Start Highest point End Pass type
(mag) Time Alt. Az. Time Alt. Az. Time Alt. Az.
17 Aug 10.1 20:30:46 10° W 20:47:40 37° SW 21:00:17 10° SSE visible
18 Aug 10.4 21:50:24 10° W 22:00:21 17° SW 22:08:33 10° SSW visible
19 Aug 10.3 20:44:46 10° W 20:59:36 28° SW 21:11:22 10° S visible
21 Aug 10.6 20:59:58 10° W 21:11:25 19° SW 21:21:13 10° SSW visible
23 Aug 10.9 21:19:09 10° WSW 21:23:16 11° SW 21:27:12 10° SW visible
24 Aug 10.8 20:10:01 10° W 20:22:12 20° SW 20:33:17 10° S visible
26 Aug 11.1 20:28:40 10° WSW 20:34:13 12° SW 20:39:34 10° SW visible
